DateTimeUTC,F1_A11,F1_S11,BsB_S11,BsG_S11,BsR_S11,BbsB_S11,BbsG_S11,BbsR_S11,BaB_A11,BaG_A11,BaR_A11,Tu_S11,T_S11,Uu_S11,U_S11,P_S11,T1_A11
2021-04-27T05:00:00Z,00000200,20000000,,,,,,,-000.28,-000.41,0000.18,17.5,24.7,01.6,01.0,0683.8,31.1
2021-04-27T05:01:00Z,00000200,20000000,,,,,,,-000.15,0000.19,-000.30,17.5,24.8,01.6,01.0,0683.9,31.1
2021-04-27T05:02:00Z,00000200,20000000,,,,,,,-000.56,-000.13,-000.15,17.5,24.8,01.6,01.0,0683.9,31.1
2021-04-27T05:03:00Z,00000200,60000000,,,,,,,0000.17,0000.05,0000.08,17.5,24.8,01.6,01.0,0683.8,31.1
2021-04-27T05:04:00Z,00000200,41000000,0000.75,0000.89,0000.56,0000.21,0000.18,0000.22,0000.49,0000.24,0000.22,17.6,24.5,01.3,00.8,0684.7,31.1
2021-04-27T05:05:00Z,00000200,01000000,0001.30,0000.81,0000.62,0000.18,0000.22,0000.37,0000.80,0000.41,0000.28,17.6,24.5,01.5,01.0,0684.8,31.1
2021-04-27T05:06:00Z,00000200,01000000,0001.68,0001.02,0000.65,0000.28,0000.40,0000.25,0000.19,0000.76,0000.68,17.6,24.5,01.4,00.9,0684.8,31.1
2021-04-27T05:07:00Z,00000200,01000000,0000.68,0000.72,0000.29,0000.27,-000.05,0000.12,0000.76,0000.26,0000.19,17.6,24.5,01.4,00.9,0684.8,31.1
2021-04-27T05:08:00Z,00000200,01000000,0001.01,0000.72,0000.63,0000.59,0000.23,0000.33,0000.42,0000.55,0000.20,17.7,24.5,01.5,01.0,0684.7,31.1
2021-04-27T05:09:00Z,00000200,01000000,0001.09,0000.70,0000.29,0000.14,-000.10,0000.26,0000.39,0000.60,0000.59,17.7,24.5,01.4,00.9,0684.7,31.1
2021-04-27T05:10:00Z,00000200,01000000,0001.00,0000.50,0000.45,0000.36,0000.17,0000.12,0000.72,0000.56,0000.31,17.7,24.5,01.5,01.0,0684.7,31.1
2021-04-27T05:11:00Z,00000200,01000000,0002.12,0000.87,0000.71,0000.07,0000.20,0000.36,0000.37,0000.40,0000.20,17.7,24.5,01.5,01.0,0684.7,31.1
2021-04-27T05:12:00Z,00000200,01000000,0001.18,0001.28,0000.72,0000.42,0000.31,0000.23,0000.14,0000.07,0000.11,17.7,24.5,01.6,01.1,0684.7,31.1
2021-04-27T05:13:00Z,00000200,01000000,0001.92,0000.86,0000.24,0000.47,0000.15,0000.18,0000.51,0000.46,0000.45,17.7,24.5,01.5,01.0,0684.7,31.1
2021-04-27T05:14:00Z,00000200,01000000,0001.05,0001.08,0000.13,0000.30,0000.11,-000.04,0000.85,0000.57,0000.52,17.7,24.5,01.6,01.0,0684.6,31.1
2021-04-27T05:15:00Z,00000200,01000000,0002.17,0000.89,0000.64,0000.65,0000.04,0000.26,0000.68,0000.44,0000.52,17.7,24.5,01.6,01.1,0684.6,31.1
2021-04-27T05:16:00Z,00000200,01000000,0001.49,0001.10,0000.69,0000.37,0000.14,0000.29,0000.71,0000.62,0000.20,17.7,24.5,01.6,01.1,0684.6,31.1
2021-04-27T05:17:00Z,00000200,01000000,0002.20,0001.09,0000.29,0000.44,0000.17,0000.16,0000.57,0000.61,0000.52,17.7,24.5,01.7,01.1,0684.6,31.1
2021-04-27T05:18:00Z,00000200,01000000,0001.80,0001.19,0000.57,0000.34,0000.35,0000.24,0000.33,0000.33,0000.29,17.7,24.4,01.6,01.1,0684.6,31.1
2021-04-27T05:19:00Z,00000200,01000000,0001.83,0001.25,0000.54,0000.89,0000.16,0000.50,0000.52,0000.71,0000.45,17.7,24.4,01.7,01.1,0684.6,31.1
2021-04-27T05:20:00Z,00000200,01000000,0002.21,0001.45,0000.70,0000.54,0000.14,0000.19,0000.66,0000.71,0000.64,17.7,24.4,01.7,01.1,0684.6,31.1
2021-04-27T05:21:00Z,00000200,01000000,0002.05,0001.40,0000.81,-000.07,0000.17,0000.20,0001.00,0000.79,0000.15,17.7,24.4,01.8,01.2,0684.7,31.1
2021-04-27T05:22:00Z,00000200,01010000,0001.92,0001.37,0000.82,0000.49,0000.07,0000.26,0000.64,0000.33,0000.74,17.7,24.4,01.9,01.2,0684.7,31.1
2021-04-27T05:23:00Z,00000200,01010000,0001.94,0001.56,0000.96,0000.67,0000.28,0000.24,0000.51,0000.65,0000.73,17.7,24.4,01.9,01.3,0684.7,31.1
2021-04-27T05:24:00Z,00000200,01000000,0001.46,0001.11,0000.74,0000.40,0000.23,0000.49,0000.84,0000.50,-000.13,17.7,24.4,02.0,01.3,0684.7,31.1
2021-04-27T05:25:00Z,00000200,01000000,0002.02,0001.40,0000.71,0000.30,0000.13,0000.27,0000.94,0000.83,0000.96,17.7,24.4,02.0,01.3,0684.7,31.1
2021-04-27T05:26:00Z,00000200,00000000,0001.52,0001.57,0001.02,0000.30,0000.07,0000.21,0000.63,0000.58,0000.32,17.6,24.4,02.1,01.4,0684.7,31.1
2021-04-27T05:27:00Z,00000200,01000000,0002.44,0001.74,0000.89,0000.35,0000.34,-000.01,0000.83,0000.76,0000.48,17.7,24.4,02.2,01.4,0684.7,31.1
2021-04-27T05:28:00Z,00000200,00000000,0001.70,0001.68,0001.27,0000.43,0000.25,0000.20,0000.27,0000.58,0000.51,17.6,24.4,02.2,01.5,0684.7,31.1
2021-04-27T05:29:00Z,00000200,00000000,0002.26,0001.86,0000.92,0000.53,0000.26,0000.48,0000.95,0000.58,0000.61,17.6,24.4,02.1,01.4,0684.7,31.1
2021-04-27T05:30:00Z,00000200,00000000,0002.24,0001.19,0000.78,0000.28,0000.01,0000.30,0000.76,0000.93,0000.58,17.6,24.4,02.3,01.5,0684.7,31.1
2021-04-27T05:31:00Z,00000200,00000000,0001.65,0001.29,0000.74,0000.21,0000.23,0000.22,0000.66,0000.67,0000.69,17.6,24.4,02.4,01.6,0684.7,31.1
2021-04-27T05:32:00Z,00000200,00000000,0001.87,0001.12,0000.62,0000.31,0000.07,0000.30,0000.92,0000.32,0000.46,17.6,24.4,02.3,01.5,0684.7,31.1
2021-04-27T05:33:00Z,00000200,00000000,0001.36,0001.07,0000.60,0000.17,0000.38,0000.21,0000.22,0000.82,0000.27,17.6,24.4,02.5,01.6,0684.7,31.1
2021-04-27T05:34:00Z,00000200,00000000,0001.22,0001.19,0000.35,0000.15,0000.18,0000.35,0000.83,0000.37,0000.40,17.6,24.4,02.5,01.7,0684.7,31.1
2021-04-27T05:35:00Z,00000200,00000000,0001.31,0000.89,0000.56,0000.30,0000.23,0000.32,0000.61,0000.59,0000.32,17.6,24.4,02.7,01.8,0684.7,31.1
2021-04-27T05:36:00Z,00000200,00000000,0001.37,0001.29,0000.68,0000.39,0000.29,0000.20,0000.64,0000.31,0000.56,17.6,24.4,02.6,01.7,0684.7,31.1
2021-04-27T05:37:00Z,00000200,00000000,0001.95,0001.31,0000.61,0000.86,0000.33,0000.41,0000.54,0000.75,0000.33,17.6,24.3,02.7,01.8,0684.7,31.1
2021-04-27T05:38:00Z,00000200,00000000,0001.43,0000.98,0000.30,0000.25,0000.11,0000.14,0000.71,0000.65,0000.11,17.7,24.4,02.7,01.8,0684.7,31.1
2021-04-27T05:39:00Z,00000200,00000000,0001.09,0000.31,0000.61,0000.20,0000.03,0000.50,0000.19,0000.28,0000.36,17.8,24.4,02.6,01.8,0684.7,31.1
2021-04-27T05:40:00Z,00000200,00000000,0001.31,0000.90,0000.20,-000.22,0000.01,0000.27,0000.62,0000.15,0000.23,17.8,24.4,02.7,01.8,0684.7,31.1
2021-04-27T05:41:00Z,00000200,00000000,0001.52,0000.74,0000.45,0000.39,0000.07,0000.15,0000.31,0000.34,0000.27,17.8,24.5,02.6,01.8,0684.7,31.1
2021-04-27T05:42:00Z,00000200,00000000,0000.78,0000.51,0000.29,0000.31,0000.28,0000.26,0000.28,0000.55,0000.30,17.9,24.5,02.6,01.8,0684.7,31.1
2021-04-27T05:43:00Z,00000200,00000000,0001.05,0000.30,0000.27,0000.30,0000.30,0000.18,0000.29,0000.61,0000.24,17.9,24.5,02.7,01.8,0684.7,31.1
2021-04-27T05:44:00Z,00000200,00000000,0000.77,0000.83,0000.30,0000.61,0000.08,0000.18,0000.07,-000.19,0000.23,17.9,24.5,02.7,01.8,0684.7,31.1
2021-04-27T05:45:00Z,00000200,00000000,0001.01,0000.73,0000.36,-000.29,0000.28,0000.46,0000.51,0000.50,0000.25,17.9,24.5,02.7,01.8,0684.7,31.1
2021-04-27T05:46:00Z,00000200,00000000,0001.37,0000.61,0000.43,0000.18,0000.13,0000.24,0000.47,0000.46,0000.43,17.9,24.5,02.8,01.8,0684.7,31.1
2021-04-27T05:47:00Z,00000200,00000000,0001.47,0000.51,0000.10,0000.31,0000.13,0000.29,0000.63,0000.05,0000.37,17.9,24.5,02.7,01.8,0684.7,31.1
2021-04-27T05:48:00Z,00000200,00000000,0001.66,0000.71,0000.42,-000.17,0000.48,0000.33,0000.05,0000.25,0000.15,17.9,24.5,02.8,01.9,0684.7,31.2
2021-04-27T05:49:00Z,00000200,00000000,0000.83,0000.39,0000.32,0000.37,0000.02,0000.27,0000.78,0000.39,0000.29,17.9,24.5,02.7,01.8,0684.7,31.1
2021-04-27T05:50:00Z,00000200,00000000,0001.16,0000.54,0000.30,0000.11,0000.32,0000.26,0000.30,0000.57,0000.22,17.9,24.5,02.8,01.9,0684.6,31.1
2021-04-27T05:51:00Z,00000200,00000000,-000.29,0000.42,0000.11,0000.25,0000.14,-000.11,0000.30,0000.49,0000.19,17.9,24.5,02.9,01.9,0684.6,31.1
2021-04-27T05:52:00Z,00000200,00000000,0000.55,0000.54,0000.21,0000.00,0000.11,0000.18,0000.31,0000.32,0000.41,17.9,24.5,02.9,02.0,0684.6,31.1
2021-04-27T05:53:00Z,00000200,00000000,0000.23,0000.21,0000.40,0000.23,0000.07,0000.28,0000.35,0000.41,0000.20,17.9,24.5,03.0,02.0,0684.6,31.1
2021-04-27T05:54:00Z,00000200,00000000,0000.20,0000.20,-000.03,-000.46,-000.10,0000.12,0000.30,0000.27,0000.16,17.9,24.5,03.0,02.0,0684.6,31.1
2021-04-27T05:55:00Z,00000200,00000000,0000.04,0000.19,0000.21,0000.02,0000.07,0000.28,0000.66,0000.48,0000.70,17.9,24.5,03.2,02.1,0684.6,31.1
2021-04-27T05:56:00Z,00000200,00000000,0000.64,0000.54,0000.22,0000.02,0000.22,0000.12,0000.73,0000.91,0000.15,17.9,24.5,03.3,02.2,0684.6,31.1
2021-04-27T05:57:00Z,00000200,40000000,,,,,,,-000.81,-000.91,-000.40,17.9,24.5,03.1,02.1,0684.5,31.1
2021-04-27T05:58:00Z,00000200,60000000,,,,,,,0000.65,0000.49,0000.07,17.7,24.6,03.2,02.1,0683.6,31.1
2021-04-27T05:59:00Z,00000200,20000000,,,,,,,0000.34,0000.67,0001.00,17.7,24.7,03.2,02.1,0683.5,31.1
